This is the latest recevied weather packets stored in our database for station/object KO4LCK. If no packets are shown the sender has not sent any weather packets the latest 1 day(s).
| Time | Temp. | Humidity | Pressure | Rain* | Wind** | Luminosity | Snow |
|---|---|---|---|---|---|---|---|
| 1778009690 | 27.22° C | 35% | 1014.3 hPa | 0 mm | 0.89 m/s, 219° | 723 W/m² | - |
| 1778009387 | 27.22° C | 33% | 1014.4 hPa | 0 mm | 0.89 m/s, 185° | 731 W/m² | - |
| 1778009085 | 27.22° C | 35% | 1014.5 hPa | 0 mm | 1.34 m/s, 253° | 745 W/m² | - |
| 1778008782 | 26.67° C | 35% | 1014.7 hPa | 0 mm | 0.89 m/s, 160° | 755 W/m² | - |
| 1778008481 | 27.78° C | 36% | 1014.7 hPa | 0 mm | 0.45 m/s, 269° | 738 W/m² | - |
| 1778008177 | 27.22° C | 36% | 1014.8 hPa | 0 mm | 1.79 m/s, 151° | 771 W/m² | - |
| 1778007872 | 26.67° C | 34% | 1014.9 hPa | 0 mm | 0.89 m/s, 201° | 792 W/m² | - |
| 1778007569 | 26.11° C | 36% | 1014.9 hPa | 0 mm | 0.89 m/s, 305° | 852 W/m² | - |
| 1778007266 | 26.11° C | 38% | 1014.7 hPa | 0 mm | 0.89 m/s, 232° | 494 W/m² | - |
| 1778006962 | 26.11° C | 36% | 1014.8 hPa | 0 mm | 0.45 m/s, 231° | 662 W/m² | - |
| 1778006659 | 26.67° C | 35% | 1014.8 hPa | 0 mm | 2.68 m/s, 195° | 618 W/m² | - |
| 1778006356 | 26.11° C | 34% | 1015 hPa | 0 mm | 0 m/s | 743 W/m² | - |
| 1778006053 | 25.56° C | 34% | 1014.8 hPa | 0 mm | 2.68 m/s, 230° | 817 W/m² | - |
| 1778005749 | 26.11° C | 34% | 1014.9 hPa | 0 mm | 1.79 m/s, 224° | 388 W/m² | - |
| 1778005446 | 26.67° C | 37% | 1014.8 hPa | 0 mm | 3.13 m/s, 218° | 496 W/m² | - |
| 1778005142 | 26.67° C | 37% | 1014.9 hPa | 0 mm | 1.79 m/s, 212° | 589 W/m² | - |
| 1778004840 | 26.67° C | 38% | 1015.1 hPa | 0 mm | 0.45 m/s, 297° | 719 W/m² | - |
| 1778004536 | 27.22° C | 36% | 1014.9 hPa | 0 mm | 2.24 m/s, 277° | 832 W/m² | - |
| 1778004233 | 26.67° C | 35% | 1015 hPa | 0 mm | 0.89 m/s, 184° | 916 W/m² | - |
| 1778003930 | 26.11° C | 34% | 1015 hPa | 0 mm | 1.34 m/s, 319° | 808 W/m² | - |
| 1778003626 | 26.11° C | 35% | 1015.1 hPa | 0 mm | 0 m/s | 651 W/m² | - |
| 1778003323 | 26.67° C | 34% | 1015 hPa | 0 mm | 0.89 m/s, 91° | 472 W/m² | - |
| 1778003020 | 26.11° C | 35% | 1015.2 hPa | 0 mm | 0.45 m/s, 239° | 876 W/m² | - |
| 1778002716 | 26.11° C | 35% | 1015.8 hPa | 0 mm | 1.34 m/s, 205° | 901 W/m² | - |
| 1778002413 | 26.11° C | 34% | 1015.7 hPa | 0 mm | 2.24 m/s, 195° | 735 W/m² | - |
* Rain latest hour (hover to see other rain measurements)
** Current wind speed in m/s (hover to see current wind gust speed)